Flag for Canada Weather past 2 weeks in Churchill, Manitoba, Canada

Now
57 °F

Broken clouds.


Feels Like: 54 °F
Forecast: 46 / 57 °F
Wind: 14 mph from East

Location: Churchill

Current Time: Jul 3, 2015 at 12:40:53 PM

Latest Report: Jul 3, 2015 at 12:00 PM


Visibility: 15 mi

Pressure: 29.93 "Hg

Humidity: 72%

Dew point: 48 °F

Location of ChurchillLocation

Historic Weather in Churchill — Graph

°F

Churchill temperature yesterday

Maximum temperature yesterday: 66 °F (at 2:00 PM)
Minimum temperature yesterday: 55 °F (at 3:00 PM)
Average temperature yesterday: 59 °F

Past Weeks' High & Low Weather Summary

 TemperatureHumidityPressure
High81 °F (Jun 24, 5:00 PM)100% (Jun 27, 11:00 PM)30.06 "Hg (Jun 27, 11:00 PM)
Low37 °F (Jun 29, 4:00 AM)24% (Jun 24, 6:00 PM)29.57 "Hg (Jun 21, 12:00 AM)
Average54 °F69%29.82 "Hg
* Reported Jun 18 11:00 AM — Jul 3 11:00 AM, Churchill, Weather by CustomWeather, © 2015

Note: Actual official high and low records may vary slightly from our data, if they occured in-between our weather recording intervals... More about our weather records

Advertising

Churchill weather history for previous 24 hours

 ConditionsComfort  
Time TempWeatherWind HumidityBarometerVisibility
11:00 AM
Fri, Jul 3
57 °FBroken clouds.13 mph72%29.92 "Hg15 mi
10:00 AM54 °FPartly sunny.14 mph82%29.92 "Hg15 mi
9:00 AM54 °FPartly sunny.12 mph82%29.91 "Hg15 mi
8:00 AM57 °FPartly sunny.7 mph72%29.90 "Hg15 mi
7:00 AM54 °FPartly sunny.7 mph77%29.88 "Hg15 mi
6:00 AM54 °FPartly sunny.6 mph88%29.88 "Hg15 mi
5:00 AM54 °FPassing clouds.3 mph82%29.85 "Hg15 mi
4:00 AM54 °FPassing clouds.7 mph88%29.84 "Hg15 mi
3:00 AM55 °FLight rain. Passing clouds.No wind77%29.84 "Hg15 mi
2:00 AM57 °FPassing clouds.5 mph72%29.83 "Hg15 mi
1:00 AM55 °FPassing clouds.5 mph82%29.82 "Hg15 mi
12:00 AM55 °FPassing clouds.8 mph82%29.82 "Hg15 mi
11:00 PM
Thu, Jul 2
55 °FScattered clouds.5 mph72%29.80 "Hg15 mi
10:00 PM55 °FScattered clouds.2 mph67%29.80 "Hg15 mi
9:00 PM55 °FScattered clouds.2 mph72%29.79 "Hg15 mi
8:00 PM57 °FPassing clouds.6 mph67%29.78 "Hg15 mi
7:00 PM57 °FPassing clouds.10 mph67%29.78 "Hg15 mi
6:00 PM57 °FPassing clouds.13 mph72%29.76 "Hg15 mi
5:00 PM57 °FPassing clouds.14 mph77%29.75 "Hg15 mi
4:00 PM55 °FScattered clouds.12 mph82%29.74 "Hg15 mi
3:00 PM55 °FBroken clouds.17 mph82%29.72 "Hg15 mi
2:00 PM66 °FBroken clouds.12 mph73%29.68 "Hg10 mi
1:00 PM64 °FPartly sunny.10 mph83%29.67 "Hg10 mi
12:00 PM64 °FPartly sunny.12 mph88%29.66 "Hg10 mi
Weather by CustomWeather, © 2015

See weather overviewHow to use our weather pages